Location: Camps Bay
(33.9517°S, 18.3844°E)
Time: 20:42:22
(UTC+00:00)

Cosmos 2082 Rocket - Pass Details

Date: 18 January 2020
Orbit: 834 x 852 km, 71.0° (Epoch: 24 February)

Event Time Altitude Azimuth Distance (km) Brightness Sun altitude
Exits shadow 02:04:36 34° 296° (WNW) 1,370 2.8 -19.4°
Maximum altitude 02:06:36 48° 245° (WSW) 1,104 2.6 -19.1°
Drops below altitude 10° 02:12:09 10° 171° (S) 2,503 5.4 -18.2°
Sets 02:14:44 0° 165° (SSE) 3,447 6.3 -17.9°
